Torna al catalogo

STARLINK-31008

AttivoComunicazioniVLEO
NORAD 58636·PAYLOAD·🇺🇸 United States

Lanciato Dec 23, 2023 da Cape Canaveral Space Force Station

Loading…

Prossimi Passaggi (prossime 24 ore)

TLE

AggiornatoSource: CelesTrak SupGP

Epoca: Sep 14, 2026, 15:06 UTC

1 58636C 23203U   26257.62965278 -.00024358  00000+0 -88228-3 0  2576
2 58636  43.0033  80.3956 0001357 266.9574  86.0925 15.27589915    12

Traccia STARLINK-31008 in tempo reale con AllMySat

Download on the App Store